sat.trackr.live / text

‹ back to catalog

STARLINK-11686 [DTC]

NORAD 64233 · 2025-119A

PAYLOAD ACTIVE UNKNOWN

§ Identity

Operator
Country
US
Launch date
2025-06-03
Launch site
AFETR
Launch vehicle
Mass (kg)
RCS (m²)

Purposes: comms

External: N2YO · Heavens-Above · Gunter

§ Orbital elements

Epoch: 2026-05-25T04:40:19.608096Z

Period
91.67 min
Inclination
43.0011°
Eccentricity
0.0002379
Mean motion
15.70863571 rev/d
Perigee alt
354.8 km
Apogee alt
358.0 km
Semi-major
6,734.6 km
B*
1.3834e-3
RAAN
108.2648°
Arg perigee
279.5715°
Mean anomaly
80.4884°
Rev number
5,727

§ Raw data

STARLINK-11686 [DTC]1 64233U 25119A   26145.19467139  .00181169  00000+0  13834-2 0  99902 64233  43.0011 108.2648 0002379 279.5715  80.4884 15.70863571 57271

JSON: /api/v1/satellites/64233 · /tle

For live sub-satellite position, see the globe view (requires WebGL).

§ Visibility from observer

Set your observer location to see the next 7 days of passes ≥ 10°. The values pass through the URL so the page stays shareable.

No JS? Fill the form by hand. The geolocation button needs JavaScript.